Location: Unspecified
(0.0000°N, 0.0000°E)
Time: 00:01:55
(UTC+00:00)

ARGOS - Pass Details

Date: 07 July 2022
Orbit: 819 x 835 km, 98.4° (Epoch: 14 August)

Event Time Altitude Azimuth Distance (km) Brightness Sun altitude
Rises 18:41:53 0° 180° (S) 3,361 6.1 -8.5°
Reaches altitude 10° 18:44:19 10° 185° (S) 2,428 5.4 -9.1°
Maximum altitude 18:49:26 46° 257° (WSW) 1,100 4.3 -10.2°
Drops below altitude 10° 18:54:34 10° 330° (NNW) 2,428 6.4 -11.4°
Sets 18:57:01 0° 336° (NNW) 3,361 7.1 -12.0°
